{"data":{"norad_id":56511,"epoch":"2026-09-20T03:54:31.218912Z","epoch_age_seconds":143946,"freshness":"FRESH","line1":"1 56511U 23065J   26263.16286133 -.00000101  00000+0  58353-5 0  9994","line2":"2 56511  43.0017 194.0447 0000859 266.8187  93.2567 15.27574822186341","mean_motion":15.27574822,"eccentricity":8.59e-5,"inclination_deg":43.0017,"raan_deg":194.0447,"arg_perigee_deg":266.8187,"mean_anomaly_deg":93.2567,"bstar":5.8353e-6,"rev_number":18634,"period_min":94.267068248392,"perigee_km":482.47522366071,"apogee_km":483.65397809574,"semimajor_km":6861.2016008782,"source":"CELESTRAK","updated_at":"2026-09-21T09:00:33.470574Z"}}